Location: East Horndon
(51.5667°N, 0.3500°E)
Time: 05:29:06
(UTC+00:00)

Cosmos 676 Rocket - Pass Details

Date: 08 November 2025
Orbit: 750 x 779 km, 74.0° (Epoch: 11 December)

Event Time Altitude Azimuth Distance (km) Brightness Sun altitude
Rises 06:12:24 0° 333° (NNW) 3,258 6.8 -8.4°
Reaches altitude 10° 06:14:49 10° 331° (NNW) 2,323 6.1 -8.1°
Maximum altitude 06:20:02 69° 250° (WSW) 823 4.0 -7.3°
Drops below altitude 10° 06:25:12 10° 168° (SSE) 2,287 6.9 -6.5°
Sets 06:27:33 0° 166° (SSE) 3,204 7.7 -6.2°
